Newport, AR

11:20 AM CDT on March 28, 2017 (GMT -0500)
Newport

Weather History for KM19 - November, 2012

Change the Weather History Date:

Tuesday, November 13, 2012

  Actual Average (KBVX) Record (KBVX)
Temperature  
Mean Temperature 40 °F -  
Max Temperature 50 °F 60 °F 84 °F (1955)
Min Temperature 31 °F 35 °F 15 °F (1986)
Degree Days  
Heating Degree Days 24    
Moisture  
Dew Point 30 °F    
Average Humidity 71    
Maximum Humidity 92    
Minimum Humidity 40    
Precipitation  
Precipitation 0.00 in - - ()
Sea Level Pressure  
Sea Level Pressure 30.50 in    
Wind  
Wind Speed 5 mph (North)    
Max Wind Speed 9 mph    
Max Gust Speed 33 mph    
Visibility 10 miles    
Events      
Averages and records for this station are not official NWS values.
T = Trace of Precipitation, MM = Missing Value Source: NWS Daily Summary

Daily Weather History Graph

Daily Weather History Graph

Search for Another Location

Airport or City:

Trip Planner

Search our weather history database for the weather conditions in past years. The results will help you decide how hot, cold, wet, or windy it might be!

Date:

Astronomy

Nov. 13, 2012 Rise Set
Actual Time 6:38 AM CST 4:58 PM CST
Civil Twilight 6:11 AM CST 5:25 PM CST
Nautical Twilight 5:41 AM CST 5:56 PM CST
Astronomical Twilight 5:10 AM CST 6:26 PM CST
Moon 6:16 AM CST (11/13) 4:53 PM CST (11/13)
Length of Visible Light 11h 13m
Length of Day
10h 19m
Waning Crescent, 0% of the Moon is Illuminated
Nov 13
Waning Crescent
Nov 13
New
Nov 20
First Quarter
Nov 28
Full
Dec 6
Last Quarter

Hourly Weather History & Observations

Time (CST) Temp. Windchill Dew Point Humidity Pressure Visibility Wind Dir Wind Speed Gust Speed Precip Events Conditions
12:56 AM 34.0 °F 28.8 °F 29.1 °F 82% 30.50 in 10.0 mi WNW 5.8 mph - N/A   Clear
1:56 AM 34.9 °F 32.0 °F 29.1 °F 79% 30.51 in 10.0 mi WNW 3.5 mph - N/A   Clear
2:56 AM 32.9 °F 28.5 °F 28.0 °F 82% 30.51 in 10.0 mi WNW 4.6 mph - N/A   Clear
3:56 AM 32.0 °F 27.5 °F 28.0 °F 85% 30.51 in 10.0 mi WNW 4.6 mph - N/A   Clear
4:56 AM 32.0 °F 27.5 °F 27.1 °F 82% 30.53 in 10.0 mi WNW 4.6 mph - N/A   Clear
5:56 AM 31.1 °F 26.4 °F 28.0 °F 88% 30.54 in 10.0 mi NW 4.6 mph - N/A   Clear
6:56 AM 31.1 °F - 29.1 °F 92% 30.55 in 10.0 mi Calm Calm - N/A   Clear
7:56 AM 34.0 °F 31.0 °F 29.1 °F 82% 30.56 in 10.0 mi North 3.5 mph - N/A   Clear
8:56 AM 38.8 °F 36.5 °F 31.1 °F 74% 30.57 in 10.0 mi NNE 3.5 mph - N/A   Clear
9:56 AM 43.9 °F 40.5 °F 32.9 °F 65% 30.57 in 10.0 mi NE 5.8 mph - N/A   Clear
10:56 AM 46.9 °F - 28.0 °F 48% 30.56 in 10.0 mi ESE 5.8 mph - N/A   Clear
11:56 AM 48.9 °F - 29.1 °F 46% 30.52 in 10.0 mi North - - N/A   Clear
12:56 PM 50.0 °F - 29.1 °F 45% 30.49 in 10.0 mi ENE 6.9 mph - N/A   Clear
1:56 PM 50.9 °F - 28.0 °F 41% 30.46 in 10.0 mi NE 8.1 mph - N/A   Clear
2:56 PM 50.9 °F - 28.0 °F 41% 30.45 in 10.0 mi Variable 5.8 mph - N/A   Clear
3:30 PM 50.0 °F - 26.6 °F 40% 30.44 in 10.0 mi NNE 5.8 mph 33.4 mph N/A   Squalls
3:56 PM 48.9 °F - 28.0 °F 44% 30.45 in 10.0 mi North 6.9 mph - N/A   Clear
4:56 PM 45.0 °F 41.2 °F 32.9 °F 63% 30.44 in 10.0 mi NE 6.9 mph - N/A   Clear
5:56 PM 41.0 °F 35.2 °F 34.0 °F 76% 30.45 in 10.0 mi ENE 9.2 mph - N/A   Clear
6:56 PM 38.8 °F - 34.0 °F 83% 30.44 in 10.0 mi North - - N/A   Clear
7:56 PM 37.9 °F 32.7 °F 32.9 °F 82% 30.45 in 10.0 mi East 6.9 mph - N/A   Clear
8:56 PM 36.9 °F 34.3 °F 32.9 °F 86% 30.47 in 10.0 mi NNE 3.5 mph - N/A   Clear
9:56 PM 36.0 °F 32.1 °F 32.0 °F 86% 30.47 in 10.0 mi North 4.6 mph - N/A   Clear
10:56 PM 34.9 °F 29.9 °F 32.0 °F 89% 30.47 in 10.0 mi NNW 5.8 mph - N/A   Clear
11:56 PM 34.0 °F 29.8 °F 32.0 °F 92% 30.47 in 10.0 mi NNW 4.6 mph - N/A   Clear